Vorticity
nan nan nan nan nan nan nan nan nan nan nan nan nan nan nan nan nan nan nan nan nan nan nan nan nan nan nan nan nan nan nan nan nan nan nan nan nan nan nan nan nan nan nan
nan 7 6 5 4 4 2 4 4 3 4 5 4 5 6 5 5 6 5 5 5 7 6 6 6 4 5 5 5 5 5 5 4 6 5 0 1 4 5 7 7 7 nan
nan 7 5 5 5 5 5 4 4 5 4 3 5 5 6 6 6 5 6 6 7 7 6 5 5 5 5 5 5 6 5 5 3 2 6 6 5 4 5 6 7 6 nan
nan 6 8 7 6 6 6 4 4 4 5 5 4 4 5 6 7 6 7 6 8 8 5 5 5 5 4 5 6 6 5 4 2 10 8 5 4 4 6 5 6 8 nan
nan 6 11 7 6 6 6 6 4 4 5 4 5 5 4 7 7 7 7 6 7 6 5 4 4 5 4 5 5 6 5 4 8 8 5 7 5 5 5 6 5 5 nan
nan 6 8 8 6 5 7 5 3 4 5 6 5 5 7 7 7 7 6 6 6 5 5 5 5 5 5 5 5 4 5 4 9 6 5 6 7 7 6 6 6 5 nan
nan 8 6 7 4 4 6 6 4 5 4 5 6 7 7 7 8 7 6 5 6 6 5 5 4 4 4 4 4 4 2 5 11 6 6 5 6 5 6 7 7 5 nan
nan 7 6 7 5 5 7 7 5 4 5 4 5 7 7 8 7 6 7 6 6 5 5 4 4 5 4 4 4 5 4 7 7 4 5 5 7 6 5 6 6 7 nan
nan 7 7 7 5 5 8 7 6 5 6 5 4 6 7 8 7 6 6 7 6 5 5 5 5 5 5 5 5 5 3 7 11 6 4 6 6 6 6 6 6 8 nan
nan 7 6 7 7 6 5 7 6 6 6 6 5 6 6 5 7 8 6 9 6 6 6 5 6 6 6 5 5 4 1 8 3 7 6 9 7 6 5 6 6 6 nan
nan 7 6 6 6 7 8 8 5 7 6 6 6 6 5 7 7 3 8 9 6 6 6 6 6 5 2 4 5 3 3 8 5 5 7 8 6 6 5 5 6 6 nan
nan 6 6 7 7 6 7 8 7 6 7 7 6 6 5 6 6 4 8 7 10 7 6 5 6 4 1 0 5 4 9 8 7 5 8 8 5 6 6 5 6 7 nan
nan 7 7 6 7 6 6 6 8 7 7 9 9 5 6 7 8 8 5 7 8 7 7 8 4 1 6 5 6 9 7 6 6 6 7 8 7 6 6 5 5 6 nan
nan 7 8 8 6 5 6 8 7 7 7 8 10 7 6 7 6 7 6 8 7 8 7 5 4 9 8 7 8 7 7 6 8 7 7 7 7 7 7 6 6 6 nan
nan 9 9 7 7 8 5 7 8 8 8 8 8 8 6 6 8 7 8 8 8 7 8 8 7 7 7 7 7 8 8 7 8 7 7 8 9 7 6 5 6 5 nan
nan 8 8 8 8 7 7 7 6 8 8 8 8 9 6 6 8 8 8 7 8 7 10 10 9 8 7 7 6 7 6 8 7 8 6 7 6 6 6 5 5 6 nan
nan 7 8 8 7 7 9 7 7 8 8 7 9 10 9 7 7 8 7 8 9 10 10 8 9 7 6 9 9 6 7 8 5 8 7 7 5 4 6 6 5 5 nan
nan 10 7 8 8 7 7 7 7 7 8 7 8 9 10 8 8 8 8 9 11 12 9 10 9 6 8 10 7 8 9 8 7 7 9 7 7 4 6 9 5 5 nan
nan 9 8 7 9 8 6 7 8 8 7 8 8 9 8 9 8 7 9 11 9 9 9 9 10 7 4 7 8 11 11 10 7 9 8 7 8 8 6 6 5 5 nan
nan 8 7 7 9 8 8 7 7 8 7 8 8 6 8 10 9 7 8 7 7 7 9 10 10 9 7 7 6 7 13 9 8 7 6 6 7 9 8 4 3 4 nan
nan 8 8 7 7 7 9 8 7 7 7 7 8 9 9 9 9 7 7 6 6 9 9 9 11 8 5 8 4 5 10 8 9 6 7 6 8 7 6 4 5 6 nan
nan 7 7 7 6 6 7 8 10 10 9 10 9 11 9 9 9 8 8 7 4 8 10 8 6 3 10 7 3 6 7 6 7 9 9 8 7 6 7 6 6 7 nan
nan 8 8 8 8 9 8 8 9 8 9 10 10 11 12 10 9 9 8 8 8 5 6 10 8 6 6 8 7 4 7 10 6 9 10 9 7 6 7 7 7 7 nan
nan 8 9 9 9 11 10 8 7 6 8 9 11 9 12 11 10 9 10 10 7 6 9 9 7 6 8 8 3 4 11 11 8 7 11 11 8 8 7 7 8 7 nan
nan 8 9 10 11 10 9 9 8 7 8 9 10 11 10 11 12 11 10 9 7 7 8 7 9 8 8 8 5 4 9 13 13 8 8 8 8 10 8 8 7 8 nan
nan nan nan nan nan nan nan nan nan nan nan nan nan nan nan nan nan nan nan nan nan nan nan nan nan nan nan nan nan nan nan nan nan nan nan nan nan nan nan nan nan nan nan
CAPE
1006 1101 1782 1289 1489 1067 633 488 836 1235 993 1100 1408 1543 1459 1542 1478 1434 1393 1069 915 787 1009 692 362 347 339 215 454 506 475 310 452 439 384 262 156 5 67 692 307 49 137
856 1024 1932 1726 1814 1223 1037 796 487 890 1068 1190 906 1329 1521 1541 1588 1471 1171 1076 973 844 1021 990 853 542 288 187 501 602 453 445 484 447 578 618 205 79 175 438 830 327 286
749 790 895 2066 1985 1079 1847 1103 782 570 702 852 1046 1006 1268 1483 1474 1402 1198 1060 1002 1151 1191 996 858 682 374 351 288 301 339 441 309 385 647 447 325 25 129 678 778 410 301
742 701 424 2077 2585 1977 1886 1432 1140 689 624 756 981 948 1320 1388 1436 1388 1092 1153 1085 1421 1223 956 720 605 383 214 267 211 424 280 148 476 203 119 235 203 61 178 375 223 236
1216 841 361 2548 2657 2407 2026 1631 1300 795 678 1088 1001 1033 1225 1467 1486 1266 1196 1095 1351 1330 1249 950 780 576 397 219 205 264 313 188 355 273 266 459 343 267 122 106 358 206 269
1637 1313 1638 2845 2805 2515 2224 1898 1547 1151 580 1609 821 1359 1150 1476 1472 1311 1265 1338 1372 1450 1313 1032 879 500 384 245 224 289 126 155 417 253 314 331 378 307 213 85 357 489 164
1796 1656 1206 2712 2741 2616 2538 2205 1797 1449 826 1448 1062 1158 1575 1571 1610 1406 1333 1328 1485 1514 1405 1076 862 472 317 147 126 119 110 265 231 180 146 144 229 241 194 133 109 109 107
1913 1732 1381 2530 2998 2831 2582 2359 2001 1628 1094 1016 1243 1723 1460 1630 1637 1448 1351 1377 1466 1423 1332 1110 864 523 236 74 15 24 15 78 109 89 82 119 239 157 177 158 119 95 108
2003 1883 1750 1670 1939 2670 2633 2308 2153 1564 1105 1097 1264 1686 1644 1715 1634 1440 1560 1526 1511 1441 1192 1121 880 541 169 55 0 0 0 53 51 44 44 96 235 134 134 86 85 94 96
2259 2201 2162 2258 1845 1545 1462 2339 2277 1667 1651 1316 1486 1747 1957 1953 1811 1694 1538 1607 1548 1410 1222 1111 806 502 136 11 0 0 0 0 41 61 45 102 128 35 43 61 71 67 70
2391 2386 2344 2367 2114 1950 1773 1870 2258 2160 2238 1978 1896 1923 1513 1308 1329 1598 1462 1696 1532 1403 1220 1060 768 427 69 0 0 0 0 9 27 58 60 124 70 57 42 26 25 25 24
2314 2474 2527 2472 2305 2110 1616 1840 1788 1653 1674 1585 1405 1212 449 874 1019 1019 1350 1509 1477 1371 1191 1033 740 300 65 1 0 0 0 3 16 58 45 76 30 29 33 28 25 21 20
1567 2182 2468 2525 2447 2238 1866 2000 1780 1682 1637 1577 1524 1540 1331 821 1045 1082 1051 1105 1395 1217 1382 1003 600 172 61 7 0 0 0 4 20 39 56 72 41 25 28 19 30 33 31
855 2035 2377 2514 2206 2175 1961 1765 1762 1682 1544 1539 1512 1546 1408 1478 1194 914 975 854 1275 1115 976 1089 1095 249 2 0 0 0 0 1 14 29 32 62 50 24 52 64 55 38 35
2 640 1902 2512 2260 1971 2173 1912 1866 1889 1770 1582 1710 1653 1587 1471 1293 1080 1061 1083 1226 1089 1036 1005 593 189 0 0 0 0 0 3 13 8 26 83 106 83 64 67 56 36 24
0 79 1026 1889 2290 2123 1743 1955 1909 1714 1771 1701 1555 1469 1488 1274 1026 989 921 1042 1067 1203 1323 778 460 109 0 0 0 0 0 7 18 10 28 60 144 118 75 59 39 32 22
0 65 831 1291 1533 1735 1499 1641 1534 1561 1476 1119 1126 1041 1218 1111 920 752 608 626 665 805 626 482 291 6 0 0 0 0 3 13 26 21 45 76 86 123 122 61 40 32 25
0 4 201 283 640 1059 1025 1094 770 884 662 1010 797 362 270 395 443 738 630 527 639 769 594 535 237 25 1 1 0 1 7 25 10 37 82 94 64 66 97 111 54 31 35
0 0 0 0 0 300 657 708 433 289 451 334 209 237 376 306 394 391 485 453 368 370 384 410 197 49 0 0 0 1 3 21 26 38 55 55 65 76 72 117 81 72 44
0 0 0 0 0 0 17 343 150 119 140 106 85 140 223 315 335 366 334 340 295 441 296 413 313 167 12 6 2 0 18 29 60 31 31 36 69 77 47 41 53 43 53
0 0 0 0 0 0 0 6 60 139 139 48 71 208 114 259 319 259 376 413 237 315 279 241 20 7 6 2 5 3 0 43 62 37 45 49 75 69 39 56 48 47 31
0 0 0 0 0 0 0 0 0 1 15 49 42 159 306 244 162 474 412 529 440 262 159 31 3 9 10 0 6 26 56 68 51 54 85 87 75 76 56 46 45 52 50
0 0 0 0 0 0 0 0 0 3 11 21 64 94 164 252 163 173 264 427 522 339 124 41 19 8 6 4 11 12 47 59 104 18 97 69 80 58 42 38 43 36 36
0 0 0 0 0 0 0 0 0 0 1 12 70 102 162 181 126 58 278 460 471 346 234 194 109 12 9 7 7 0 0 0 47 66 57 90 60 37 31 31 30 14 9
0 0 0 0 0 0 0 0 0 0 2 9 41 97 184 75 48 30 236 313 201 168 172 128 97 44 7 9 5 1 0 18 32 13 26 44 38 27 25 23 5 2 0
0 3 4 5 4 1 0 0 0 7 6 11 20 4 20 5 11 35 112 129 115 122 189 146 122 58 38 38 2 0 0 16 33 24 0 7 8 15 2 1 1 0 0